Flag for Saudi Arabia Weather past 2 weeks in Jeddah, Saudi Arabia

Now
77 °F

Clear.


Feels Like: 79 °F
Forecast: 71 / 89 °F
Wind: No wind

Location: Jeddah King Abdul Aziz International Airport

Current Time: Dec 18, 2014 at 2:35:56 AM

Latest Report: Dec 18, 2014 at 2:00 AM


Visibility: 10 mi

Pressure: 29.95 "Hg

Humidity: 61%

Dew point: 63 °F

Location of JeddahLocation

Historic Weather in Jeddah — Graph

°F

Jeddah temperature yesterday

Maximum temperature yesterday: 91 °F (at 3:00 PM)
Minimum temperature yesterday: 73 °F (at 4:00 AM)
Average temperature yesterday: 80 °F

Past Weeks' High & Low Weather Summary

 TemperatureHumidityPressure
High91 °F (Dec 3, 12:00 PM)89% (Dec 10, 11:00 PM)30.04 "Hg (Dec 10, 11:00 PM)
Low72 °F (Dec 6, 6:00 AM)21% (Dec 5, 11:00 AM)29.80 "Hg (Dec 7, 3:00 PM)
Average81 °F55%29.93 "Hg
* Reported Dec 3 1:00 AM — Dec 18 1:00 AM, Jeddah, Weather by CustomWeather, © 2014

Note: Actual official high and low records may vary slightly from our data, if they occured in-between our weather recording intervals... More about our weather records

Advertising

Jeddah weather history for previous 24 hours

 ConditionsComfort  
Time TempWeatherWind HumidityBarometerVisibility
1:00 AM
Dec 18
77 °FClear.No wind65%29.98 "Hg10 mi
12:00 AM77 °FClear.6 mph61%29.98 "Hg10 mi
11:00 PM
Dec 17
79 °FClear.5 mph65%30.01 "Hg10 mi
10:00 PM79 °FPassing clouds.5 mph65%30.01 "HgN/A
9:00 PM81 °FPassing clouds.7 mph58%30.01 "HgN/A
8:00 PM81 °FPassing clouds.No wind54%30.01 "HgN/A
7:00 PM82 °FPassing clouds.7 mph48%29.98 "HgN/A
6:00 PM84 °FPassing clouds.7 mph43%29.95 "HgN/A
5:00 PM86 °FPassing clouds.12 mph40%29.95 "HgN/A
4:00 PM90 °FPassing clouds.7 mph41%29.92 "HgN/A
3:00 PM91 °FSunny.5 mph28%29.92 "Hg10 mi
2:00 PM90 °FSunny.5 mph31%29.92 "Hg10 mi
1:00 PM90 °FSunny.3 mph31%29.95 "Hg10 mi
12:00 PM86 °FSunny.7 mph33%29.98 "Hg10 mi
11:00 AM84 °FSunny.9 mph33%30.01 "Hg10 mi
10:00 AM81 °FSunny.10 mph34%30.04 "Hg10 mi
9:00 AM77 °FSunny.10 mph42%30.04 "Hg10 mi
8:00 AM75 °FSunny.8 mph41%30.01 "Hg10 mi
7:00 AM75 °FSunny.12 mph44%29.98 "Hg10 mi
6:00 AM73 °FClear.5 mph57%29.98 "Hg10 mi
5:00 AM73 °FClear.7 mph61%29.98 "Hg10 mi
4:00 AM73 °FClear.6 mph61%29.98 "Hg10 mi
3:00 AM75 °FClear.9 mph61%29.98 "Hg10 mi
2:00 AM75 °FClear.9 mph61%29.98 "Hg10 mi
Weather by CustomWeather, © 2014

See weather overviewHow to use our weather pages